Time,TemperatureF,DewpointF,PressureIn,WindDirection,WindDirectionDegrees,WindSpeedMPH,WindSpeedGustMPH,Humidity,HourlyPrecipIn,Conditions,Clouds,dailyrainin,SoftwareType,DateUTC
2013-03-25 00:02:00,28.5,27.8,29.92,North,350,14.0,14.0,97,0.00,,,0.00,Wunderground v.1.15,2013-03-25 05:02:00,
2013-03-25 00:08:00,28.4,27.4,29.92,NNW,347,11.0,14.0,96,0.00,,,0.00,Wunderground v.1.15,2013-03-25 05:08:00,
2013-03-25 00:22:00,28.4,27.4,29.92,NNW,340,12.0,12.0,96,0.00,,,0.00,Wunderground v.1.15,2013-03-25 05:22:00,
2013-03-25 00:27:00,28.4,27.4,29.92,NNW,343,11.0,12.0,96,0.00,,,0.00,Wunderground v.1.15,2013-03-25 05:27:00,
2013-03-25 00:33:00,28.4,27.7,29.92,NNW,345,11.0,13.0,97,0.00,,,0.00,Wunderground v.1.15,2013-03-25 05:33:00,
2013-03-25 00:38:00,28.4,27.4,29.92,NNW,344,14.0,14.0,96,0.00,,,0.00,Wunderground v.1.15,2013-03-25 05:38:00,
2013-03-25 00:43:00,28.3,27.3,29.92,NNW,342,12.0,12.0,96,0.00,,,0.00,Wunderground v.1.15,2013-03-25 05:43:00,
2013-03-25 00:48:00,28.3,27.3,29.92,NNW,338,12.0,13.0,96,0.00,,,0.00,Wunderground v.1.15,2013-03-25 05:48:00,
2013-03-25 00:54:00,28.3,27.3,29.92,NNW,338,13.0,13.0,96,0.00,,,0.00,Wunderground v.1.15,2013-03-25 05:54:00,
2013-03-25 01:00:00,28.3,27.3,29.92,NNW,338,10.0,13.0,96,0.00,,,0.00,Wunderground v.1.15,2013-03-25 06:00:00,
2013-03-25 01:07:00,28.3,27.3,29.92,NNW,338,12.0,14.0,96,0.00,,,0.00,Wunderground v.1.15,2013-03-25 06:07:00,
2013-03-25 01:12:00,28.3,27.3,29.92,NNW,329,14.0,14.0,96,0.00,,,0.00,Wunderground v.1.15,2013-03-25 06:12:00,
2013-03-25 01:17:00,28.3,27.3,29.93,NNW,336,13.0,14.0,96,0.00,,,0.00,Wunderground v.1.15,2013-03-25 06:17:00,
2013-03-25 01:23:00,28.3,27.3,29.93,NNW,336,13.0,13.0,96,0.00,,,0.00,Wunderground v.1.15,2013-03-25 06:23:00,
2013-03-25 01:28:00,28.3,27.3,29.93,NNW,339,11.0,16.0,96,0.00,,,0.00,Wunderground v.1.15,2013-03-25 06:28:00,
2013-03-25 01:33:00,28.3,27.3,29.92,NNW,344,14.0,15.0,96,0.00,,,0.00,Wunderground v.1.15,2013-03-25 06:33:00,
2013-03-25 01:38:00,28.2,27.2,29.93,NNW,342,15.0,16.0,96,0.00,,,0.00,Wunderground v.1.15,2013-03-25 06:38:00,
2013-03-25 01:44:00,28.1,27.1,29.93,NNW,337,14.0,16.0,96,0.00,,,0.00,Wunderground v.1.15,2013-03-25 06:44:00,
2013-03-25 01:49:00,28.1,27.1,29.93,NNW,341,13.0,16.0,96,0.00,,,0.00,Wunderground v.1.15,2013-03-25 06:49:00,
2013-03-25 01:55:00,28.1,27.1,29.93,NNW,337,15.0,16.0,96,0.00,,,0.00,Wunderground v.1.15,2013-03-25 06:55:00,
2013-03-25 02:00:00,28.0,27.0,29.93,NNW,333,15.0,15.0,96,0.00,,,0.00,Wunderground v.1.15,2013-03-25 07:00:00,
2013-03-25 02:05:00,28.0,27.0,29.93,NNW,335,16.0,17.0,96,0.00,,,0.00,Wunderground v.1.15,2013-03-25 07:05:00,
2013-03-25 02:10:00,27.9,26.9,29.93,NNW,338,14.0,15.0,96,0.00,,,0.00,Wunderground v.1.15,2013-03-25 07:10:00,
2013-03-25 02:15:00,27.9,26.9,29.93,NNW,336,15.0,17.0,96,0.00,,,0.00,Wunderground v.1.15,2013-03-25 07:15:00,
2013-03-25 02:20:00,27.9,26.9,29.93,NNW,336,13.0,17.0,96,0.00,,,0.00,Wunderground v.1.15,2013-03-25 07:20:00,
2013-03-25 02:25:00,27.9,26.9,29.93,NNW,333,12.0,16.0,96,0.00,,,0.00,Wunderground v.1.15,2013-03-25 07:25:00,
2013-03-25 02:30:00,27.9,26.9,29.93,NNW,335,13.0,16.0,96,0.00,,,0.00,Wunderground v.1.15,2013-03-25 07:30:00,
2013-03-25 02:35:00,27.9,26.9,29.93,NNW,331,12.0,15.0,96,0.00,,,0.00,Wunderground v.1.15,2013-03-25 07:35:00,
2013-03-25 02:40:00,27.9,26.9,29.93,NNW,329,12.0,17.0,96,0.00,,,0.00,Wunderground v.1.15,2013-03-25 07:40:00,
2013-03-25 02:45:00,27.9,26.9,29.93,NNW,331,15.0,15.0,96,0.00,,,0.00,Wunderground v.1.15,2013-03-25 07:45:00,
2013-03-25 02:50:00,27.9,26.9,29.93,NNW,328,13.0,16.0,96,0.00,,,0.00,Wunderground v.1.15,2013-03-25 07:50:00,
2013-03-25 02:55:00,27.9,26.9,29.93,NW,325,14.0,15.0,96,0.00,,,0.00,Wunderground v.1.15,2013-03-25 07:55:00,
2013-03-25 03:00:00,27.9,26.9,29.93,NNW,330,12.0,14.0,96,0.00,,,0.00,Wunderground v.1.15,2013-03-25 08:00:00,
2013-03-25 03:06:00,27.9,26.9,29.93,NNW,327,15.0,17.0,96,0.00,,,0.00,Wunderground v.1.15,2013-03-25 08:06:00,
2013-03-25 03:11:00,28.0,27.0,29.93,NNW,327,13.0,16.0,96,0.00,,,0.00,Wunderground v.1.15,2013-03-25 08:11:00,
2013-03-25 03:16:00,28.0,27.0,29.92,NNW,330,13.0,16.0,96,0.00,,,0.00,Wunderground v.1.15,2013-03-25 08:16:00,
2013-03-25 03:22:00,27.9,26.9,29.92,NNW,330,13.0,14.0,96,0.00,,,0.00,Wunderground v.1.15,2013-03-25 08:22:00,
2013-03-25 03:27:00,28.0,27.0,29.92,NNW,331,13.0,15.0,96,0.00,,,0.00,Wunderground v.1.15,2013-03-25 08:27:00,
2013-03-25 03:32:00,28.0,27.0,29.92,NNW,333,13.0,13.0,96,0.00,,,0.00,Wunderground v.1.15,2013-03-25 08:32:00,
2013-03-25 03:37:00,27.9,26.9,29.92,NNW,331,11.0,16.0,96,0.00,,,0.00,Wunderground v.1.15,2013-03-25 08:37:00,
2013-03-25 03:42:00,27.9,26.9,29.92,NNW,331,16.0,16.0,96,0.00,,,0.00,Wunderground v.1.15,2013-03-25 08:42:00,
2013-03-25 03:47:00,27.9,26.9,29.92,NNW,336,15.0,16.0,96,0.00,,,0.00,Wunderground v.1.15,2013-03-25 08:47:00,
2013-03-25 03:52:00,27.9,26.9,29.92,NNW,333,13.0,13.0,96,0.00,,,0.00,Wunderground v.1.15,2013-03-25 08:52:00,
2013-03-25 03:58:00,27.9,26.9,29.92,NNW,339,15.0,17.0,96,0.00,,,0.00,Wunderground v.1.15,2013-03-25 08:58:00,
2013-03-25 04:03:00,27.9,26.9,29.92,NNW,336,13.0,14.0,96,0.00,,,0.00,Wunderground v.1.15,2013-03-25 09:03:00,
2013-03-25 04:08:00,28.0,27.0,29.92,NNW,336,14.0,16.0,96,0.00,,,0.00,Wunderground v.1.15,2013-03-25 09:08:00,
2013-03-25 04:13:00,28.1,27.1,29.92,NNW,336,14.0,15.0,96,0.00,,,0.00,Wunderground v.1.15,2013-03-25 09:13:00,
2013-03-25 04:18:00,28.1,27.1,29.92,NNW,342,15.0,16.0,96,0.00,,,0.00,Wunderground v.1.15,2013-03-25 09:18:00,
2013-03-25 04:23:00,28.1,27.1,29.92,NNW,337,13.0,16.0,96,0.00,,,0.00,Wunderground v.1.15,2013-03-25 09:23:00,
2013-03-25 04:28:00,28.0,27.0,29.92,NNW,341,13.0,17.0,96,0.00,,,0.00,Wunderground v.1.15,2013-03-25 09:28:00,
2013-03-25 04:33:00,28.0,27.0,29.92,NNW,338,12.0,15.0,96,0.00,,,0.00,Wunderground v.1.15,2013-03-25 09:33:00,
2013-03-25 04:38:00,27.9,26.9,29.93,NNW,341,13.0,16.0,96,0.00,,,0.00,Wunderground v.1.15,2013-03-25 09:38:00,
2013-03-25 04:43:00,27.9,26.9,29.93,NNW,344,17.0,18.0,96,0.00,,,0.00,Wunderground v.1.15,2013-03-25 09:43:00,
2013-03-25 04:48:00,27.9,26.9,29.93,NNW,342,16.0,18.0,96,0.00,,,0.00,Wunderground v.1.15,2013-03-25 09:48:00,
2013-03-25 04:53:00,27.9,26.9,29.93,NNW,345,14.0,15.0,96,0.00,,,0.00,Wunderground v.1.15,2013-03-25 09:53:00,
2013-03-25 04:58:00,27.9,26.9,29.93,NNW,348,14.0,16.0,96,0.00,,,0.00,Wunderground v.1.15,2013-03-25 09:58:00,
2013-03-25 05:03:00,27.9,26.9,29.93,NNW,342,13.0,15.0,96,0.00,,,0.00,Wunderground v.1.15,2013-03-25 10:03:00,
2013-03-25 05:08:00,27.9,26.9,29.93,NNW,342,14.0,17.0,96,0.00,,,0.00,Wunderground v.1.15,2013-03-25 10:08:00,
2013-03-25 05:13:00,27.9,26.9,29.93,NNW,345,13.0,14.0,96,0.00,,,0.00,Wunderground v.1.15,2013-03-25 10:13:00,
2013-03-25 05:18:00,27.8,26.8,29.93,NNW,342,12.0,21.0,96,0.00,,,0.00,Wunderground v.1.15,2013-03-25 10:18:00,
2013-03-25 05:23:00,27.8,26.8,29.93,NNW,345,14.0,16.0,96,0.00,,,0.00,Wunderground v.1.15,2013-03-25 10:23:00,
2013-03-25 05:28:00,27.6,26.6,29.93,North,349,13.0,18.0,96,0.00,,,0.00,Wunderground v.1.15,2013-03-25 10:28:00,
2013-03-25 05:33:00,27.4,26.4,29.93,North,355,16.0,18.0,96,0.00,,,0.00,Wunderground v.1.15,2013-03-25 10:33:00,
2013-03-25 05:38:00,27.4,26.2,29.93,North,349,14.0,20.0,95,0.00,,,0.00,Wunderground v.1.15,2013-03-25 10:38:00,
2013-03-25 05:43:00,27.3,26.1,29.93,North,355,15.0,30.0,95,0.00,,,0.00,Wunderground v.1.15,2013-03-25 10:43:00,
2013-03-25 05:48:00,27.3,26.1,29.94,North,355,17.0,30.0,95,0.00,,,0.00,Wunderground v.1.15,2013-03-25 10:48:00,
2013-03-25 05:53:00,27.4,26.2,29.94,North,355,15.0,17.0,95,0.00,,,0.00,Wunderground v.1.15,2013-03-25 10:53:00,
2013-03-25 05:58:00,27.5,26.3,29.94,North,350,19.0,19.0,95,0.00,,,0.00,Wunderground v.1.15,2013-03-25 10:58:00,
2013-03-25 06:03:00,27.5,26.0,29.94,North,351,16.0,21.0,94,0.00,,,0.00,Wunderground v.1.15,2013-03-25 11:03:00,
2013-03-25 06:08:00,27.5,26.0,29.94,North,355,18.0,21.0,94,0.00,,,0.00,Wunderground v.1.15,2013-03-25 11:08:00,
2013-03-25 06:13:00,27.4,25.9,29.94,North,349,18.0,18.0,94,0.00,,,0.00,Wunderground v.1.15,2013-03-25 11:13:00,
2013-03-25 06:18:00,27.2,25.7,29.94,North,349,17.0,18.0,94,0.00,,,0.00,Wunderground v.1.15,2013-03-25 11:18:00,
2013-03-25 06:23:00,27.1,25.6,29.94,North,355,18.0,18.0,94,0.00,,,0.00,Wunderground v.1.15,2013-03-25 11:23:00,
2013-03-25 06:28:00,27.0,25.2,29.94,North,350,18.0,19.0,93,0.00,,,0.00,Wunderground v.1.15,2013-03-25 11:28:00,
2013-03-25 06:33:00,26.8,25.0,29.95,NNW,347,17.0,18.0,93,0.00,,,0.00,Wunderground v.1.15,2013-03-25 11:33:00,
2013-03-25 06:38:00,26.6,24.8,29.95,North,350,16.0,20.0,93,0.00,,,0.00,Wunderground v.1.15,2013-03-25 11:38:00,
2013-03-25 06:43:00,26.5,24.8,29.95,North,351,18.0,22.0,93,0.00,,,0.00,Wunderground v.1.15,2013-03-25 11:43:00,
2013-03-25 06:48:00,26.4,24.7,29.95,North,351,17.0,22.0,93,0.00,,,0.00,Wunderground v.1.15,2013-03-25 11:48:00,
2013-03-25 06:53:00,26.5,24.8,29.95,North,350,18.0,18.0,93,0.00,,,0.00,Wunderground v.1.15,2013-03-25 11:53:00,
2013-03-25 06:58:00,26.5,24.8,29.96,North,349,18.0,20.0,93,0.00,,,0.00,Wunderground v.1.15,2013-03-25 11:58:00,
2013-03-25 07:03:00,26.4,24.7,29.96,NNW,348,17.0,18.0,93,0.00,,,0.00,Wunderground v.1.15,2013-03-25 12:03:00,
2013-03-25 07:08:00,26.4,24.7,29.96,North,349,18.0,19.0,93,0.00,,,0.00,Wunderground v.1.15,2013-03-25 12:08:00,
2013-03-25 07:14:00,26.4,24.4,29.96,North,355,16.0,19.0,92,0.00,,,0.00,Wunderground v.1.15,2013-03-25 12:14:00,
2013-03-25 07:19:00,26.5,24.5,29.97,North,350,16.0,19.0,92,0.00,,,0.00,Wunderground v.1.15,2013-03-25 12:19:00,
2013-03-25 07:24:00,26.4,24.4,29.97,NNW,346,16.0,17.0,92,0.00,,,0.00,Wunderground v.1.15,2013-03-25 12:24:00,
2013-03-25 07:29:00,26.5,24.5,29.97,NNW,342,15.0,19.0,92,0.00,,,0.00,Wunderground v.1.15,2013-03-25 12:29:00,
2013-03-25 07:34:00,26.5,24.5,29.97,North,350,14.0,16.0,92,0.00,,,0.00,Wunderground v.1.15,2013-03-25 12:34:00,
2013-03-25 07:39:00,26.6,24.6,29.97,NNW,348,16.0,18.0,92,0.00,,,0.00,Wunderground v.1.15,2013-03-25 12:39:00,
2013-03-25 07:44:00,26.5,24.5,29.98,NNW,348,14.0,16.0,92,0.00,,,0.00,Wunderground v.1.15,2013-03-25 12:44:00,
2013-03-25 07:49:00,26.6,24.6,29.98,NNW,348,17.0,18.0,92,0.00,,,0.00,Wunderground v.1.15,2013-03-25 12:49:00,
2013-03-25 07:54:00,26.6,24.6,29.98,North,349,16.0,18.0,92,0.00,,,0.00,Wunderground v.1.15,2013-03-25 12:54:00,
2013-03-25 07:59:00,26.6,24.3,29.98,North,350,15.0,18.0,91,0.00,,,0.00,Wunderground v.1.15,2013-03-25 12:59:00,
2013-03-25 08:04:00,26.6,24.3,29.98,NNW,348,14.0,15.0,91,0.00,,,0.00,Wunderground v.1.15,2013-03-25 13:04:00,
2013-03-25 08:09:00,26.6,24.3,29.99,North,355,14.0,16.0,91,0.00,,,0.00,Wunderground v.1.15,2013-03-25 13:09:00,
2013-03-25 08:14:00,26.6,24.3,29.99,North,351,13.0,17.0,91,0.00,,,0.00,Wunderground v.1.15,2013-03-25 13:14:00,
2013-03-25 08:19:00,26.6,24.1,29.99,North,355,14.0,17.0,90,0.00,,,0.00,Wunderground v.1.15,2013-03-25 13:19:00,
2013-03-25 08:24:00,26.6,24.1,29.99,North,350,15.0,16.0,90,0.00,,,0.00,Wunderground v.1.15,2013-03-25 13:24:00,
2013-03-25 08:29:00,26.6,24.1,30.00,North,350,16.0,16.0,90,0.00,,,0.00,Wunderground v.1.15,2013-03-25 13:29:00,
2013-03-25 08:34:00,26.7,23.9,30.00,North,355,16.0,18.0,89,0.00,,,0.00,Wunderground v.1.15,2013-03-25 13:34:00,
2013-03-25 08:39:00,26.6,23.8,30.00,North,355,15.0,18.0,89,0.00,,,0.00,Wunderground v.1.15,2013-03-25 13:39:00,
2013-03-25 08:44:00,26.7,23.9,30.00,North,355,16.0,18.0,89,0.00,,,0.00,Wunderground v.1.15,2013-03-25 13:44:00,
2013-03-25 08:49:00,26.6,23.8,30.00,North,355,15.0,18.0,89,0.00,,,0.00,Wunderground v.1.15,2013-03-25 13:49:00,
2013-03-25 08:54:00,26.4,23.6,30.00,North,360,14.0,18.0,89,0.00,,,0.00,Wunderground v.1.15,2013-03-25 13:54:00,
2013-03-25 08:59:00,26.2,23.4,30.01,North,355,16.0,19.0,89,0.00,,,0.00,Wunderground v.1.15,2013-03-25 13:59:00,
2013-03-25 09:04:00,26.0,22.9,30.01,North,351,18.0,19.0,88,0.00,,,0.00,Wunderground v.1.15,2013-03-25 14:04:00,
2013-03-25 09:09:00,25.9,23.1,30.01,North,351,16.0,17.0,89,0.00,,,0.00,Wunderground v.1.15,2013-03-25 14:09:00,
2013-03-25 09:14:00,25.8,23.0,30.01,North,355,14.0,16.0,89,0.00,,,0.00,Wunderground v.1.15,2013-03-25 14:14:00,
2013-03-25 09:19:00,25.8,22.7,30.01,North,355,17.0,18.0,88,0.00,,,0.00,Wunderground v.1.15,2013-03-25 14:19:00,
2013-03-25 09:24:00,25.7,22.6,30.01,North,355,15.0,18.0,88,0.00,,,0.00,Wunderground v.1.15,2013-03-25 14:24:00,
2013-03-25 09:29:00,25.7,22.6,30.02,North,355,17.0,18.0,88,0.00,,,0.00,Wunderground v.1.15,2013-03-25 14:29:00,
2013-03-25 09:34:00,25.7,22.6,30.01,North,355,17.0,19.0,88,0.00,,,0.00,Wunderground v.1.15,2013-03-25 14:34:00,
2013-03-25 09:40:00,25.7,22.6,30.02,North,355,16.0,19.0,88,0.00,,,0.00,Wunderground v.1.15,2013-03-25 14:40:00,
2013-03-25 09:45:00,25.6,22.5,30.02,North,360,18.0,19.0,88,0.00,,,0.00,Wunderground v.1.15,2013-03-25 14:45:00,
2013-03-25 09:50:00,25.7,22.6,30.02,North,355,17.0,19.0,88,0.00,,,0.00,Wunderground v.1.15,2013-03-25 14:50:00,
2013-03-25 09:55:00,25.8,22.7,30.03,North,360,18.0,18.0,88,0.00,,,0.00,Wunderground v.1.15,2013-03-25 14:55:00,
2013-03-25 10:00:00,25.8,22.7,30.03,North,355,16.0,16.0,88,0.00,,,0.00,Wunderground v.1.15,2013-03-25 15:00:00,
2013-03-25 10:05:00,25.9,22.8,30.03,North,360,18.0,18.0,88,0.00,,,0.00,Wunderground v.1.15,2013-03-25 15:05:00,
2013-03-25 10:10:00,26.0,22.9,30.03,North,355,16.0,19.0,88,0.00,,,0.00,Wunderground v.1.15,2013-03-25 15:10:00,
2013-03-25 10:15:00,26.1,23.0,30.03,North,355,16.0,16.0,88,0.00,,,0.00,Wunderground v.1.15,2013-03-25 15:15:00,
2013-03-25 10:20:00,26.1,23.0,30.03,North,351,16.0,20.0,88,0.00,,,0.00,Wunderground v.1.15,2013-03-25 15:20:00,
2013-03-25 10:25:00,26.3,23.2,30.04,North,360,17.0,18.0,88,0.00,,,0.00,Wunderground v.1.15,2013-03-25 15:25:00,
2013-03-25 10:30:00,26.3,23.2,30.04,North,355,17.0,18.0,88,0.00,,,0.00,Wunderground v.1.15,2013-03-25 15:30:00,
2013-03-25 10:35:00,26.3,23.2,30.04,North,5,15.0,19.0,88,0.00,,,0.00,Wunderground v.1.15,2013-03-25 15:35:00,
2013-03-25 10:40:00,26.5,23.4,30.04,North,360,15.0,19.0,88,0.00,,,0.00,Wunderground v.1.15,2013-03-25 15:40:00,
2013-03-25 10:45:00,26.6,23.5,30.04,North,351,12.0,19.0,88,0.00,,,0.00,Wunderground v.1.15,2013-03-25 15:45:00,
2013-03-25 10:50:00,26.7,23.4,30.05,North,351,15.0,21.0,87,0.00,,,0.00,Wunderground v.1.15,2013-03-25 15:50:00,
2013-03-25 10:55:00,26.7,23.4,30.05,North,5,18.0,19.0,87,0.00,,,0.00,Wunderground v.1.15,2013-03-25 15:55:00,
2013-03-25 11:00:00,26.8,23.4,30.05,North,355,14.0,17.0,87,0.00,,,0.00,Wunderground v.1.15,2013-03-25 16:00:00,
2013-03-25 11:05:00,27.0,23.6,30.05,North,360,16.0,18.0,87,0.00,,,0.00,Wunderground v.1.15,2013-03-25 16:05:00,
2013-03-25 11:10:00,27.1,23.7,30.05,North,355,15.0,19.0,87,0.00,,,0.00,Wunderground v.1.15,2013-03-25 16:10:00,
2013-03-25 11:15:00,27.3,23.9,30.06,North,360,15.0,18.0,87,0.00,,,0.00,Wunderground v.1.15,2013-03-25 16:15:00,
2013-03-25 11:20:00,27.4,24.0,30.06,North,355,20.0,21.0,87,0.00,,,0.00,Wunderground v.1.15,2013-03-25 16:20:00,
2013-03-25 11:25:00,27.5,24.4,30.06,North,355,14.0,18.0,88,0.00,,,0.00,Wunderground v.1.15,2013-03-25 16:25:00,
2013-03-25 11:30:00,27.6,24.5,30.06,North,350,16.0,18.0,88,0.00,,,0.00,Wunderground v.1.15,2013-03-25 16:30:00,
2013-03-25 11:36:00,27.8,24.4,30.06,North,360,17.0,21.0,87,0.00,,,0.00,Wunderground v.1.15,2013-03-25 16:36:00,
2013-03-25 11:43:00,28.0,24.6,30.06,North,350,19.0,19.0,87,0.00,,,0.00,Wunderground v.1.15,2013-03-25 16:43:00,
2013-03-25 11:48:00,28.0,24.6,30.06,North,351,18.0,21.0,87,0.00,,,0.00,Wunderground v.1.15,2013-03-25 16:48:00,
2013-03-25 11:53:00,28.1,24.7,30.06,North,355,18.0,18.0,87,0.00,,,0.00,Wunderground v.1.15,2013-03-25 16:53:00,
2013-03-25 11:58:00,28.1,24.7,30.06,NNW,346,15.0,18.0,87,0.00,,,0.00,Wunderground v.1.15,2013-03-25 16:58:00,
2013-03-25 12:03:00,28.2,24.8,30.06,NNW,346,17.0,18.0,87,0.00,,,0.00,Wunderground v.1.15,2013-03-25 17:03:00,
2013-03-25 12:08:00,28.2,24.8,30.06,North,355,18.0,18.0,87,0.00,,,0.00,Wunderground v.1.15,2013-03-25 17:08:00,
2013-03-25 12:13:00,28.3,24.9,30.06,NNW,348,17.0,18.0,87,0.00,,,0.00,Wunderground v.1.15,2013-03-25 17:13:00,
2013-03-25 12:18:00,28.4,25.0,30.06,North,355,18.0,23.0,87,0.00,,,0.00,Wunderground v.1.15,2013-03-25 17:18:00,
2013-03-25 12:23:00,28.5,25.1,30.06,North,355,19.0,21.0,87,0.00,,,0.00,Wunderground v.1.15,2013-03-25 17:23:00,
2013-03-25 12:28:00,28.7,25.3,30.06,North,355,16.0,21.0,87,0.00,,,0.00,Wunderground v.1.15,2013-03-25 17:28:00,
2013-03-25 12:33:00,28.7,25.3,30.06,North,350,17.0,18.0,87,0.00,,,0.00,Wunderground v.1.15,2013-03-25 17:33:00,
2013-03-25 12:38:00,29.0,25.6,30.06,North,350,18.0,18.0,87,0.00,,,0.00,Wunderground v.1.15,2013-03-25 17:38:00,
2013-03-25 12:43:00,29.2,25.8,30.06,North,355,17.0,17.0,87,0.00,,,0.00,Wunderground v.1.15,2013-03-25 17:43:00,
2013-03-25 12:48:00,29.4,26.0,30.06,North,355,15.0,18.0,87,0.00,,,0.00,Wunderground v.1.15,2013-03-25 17:48:00,
2013-03-25 12:53:00,29.6,25.9,30.06,North,355,17.0,18.0,86,0.00,,,0.00,Wunderground v.1.15,2013-03-25 17:53:00,
2013-03-25 12:58:00,29.9,26.5,30.06,NNW,344,17.0,18.0,87,0.00,,,0.00,Wunderground v.1.15,2013-03-25 17:58:00,
2013-03-25 13:03:00,30.1,26.4,30.06,North,351,17.0,18.0,86,0.00,,,0.00,Wunderground v.1.15,2013-03-25 18:03:00,
2013-03-25 13:08:00,30.3,26.6,30.06,North,351,17.0,22.0,86,0.00,,,0.00,Wunderground v.1.15,2013-03-25 18:08:00,
2013-03-25 13:13:00,30.7,26.7,30.06,NNW,348,17.0,17.0,85,0.00,,,0.00,Wunderground v.1.15,2013-03-25 18:13:00,
2013-03-25 13:18:00,31.0,26.7,30.06,NNW,342,16.0,18.0,84,0.00,,,0.00,Wunderground v.1.15,2013-03-25 18:18:00,
2013-03-25 13:24:00,31.1,27.1,30.06,North,355,15.0,17.0,85,0.00,,,0.00,Wunderground v.1.15,2013-03-25 18:24:00,
2013-03-25 13:29:00,31.3,26.7,30.06,North,349,14.0,18.0,83,0.00,,,0.00,Wunderground v.1.15,2013-03-25 18:29:00,
2013-03-25 13:34:00,31.4,26.8,30.07,NNW,331,15.0,18.0,83,0.00,,,0.00,Wunderground v.1.15,2013-03-25 18:34:00,
2013-03-25 13:39:00,31.4,27.4,30.07,NNW,343,16.0,18.0,85,0.00,,,0.00,Wunderground v.1.15,2013-03-25 18:39:00,
2013-03-25 13:44:00,31.3,26.7,30.07,NNW,340,17.0,18.0,83,0.00,,,0.00,Wunderground v.1.15,2013-03-25 18:44:00,
2013-03-25 13:49:00,31.3,26.7,30.07,NNW,339,14.0,18.0,83,0.00,,,0.00,Wunderground v.1.15,2013-03-25 18:49:00,
2013-03-25 13:54:00,31.6,27.3,30.07,NNW,340,15.0,16.0,84,0.00,,,0.00,Wunderground v.1.15,2013-03-25 18:54:00,
2013-03-25 13:59:00,31.7,27.4,30.07,NNW,342,16.0,18.0,84,0.00,,,0.00,Wunderground v.1.15,2013-03-25 18:59:00,
2013-03-25 14:04:00,31.8,27.2,30.07,NNW,347,17.0,20.0,83,0.00,,,0.00,Wunderground v.1.15,2013-03-25 19:04:00,
2013-03-25 14:09:00,32.1,27.2,30.07,NNW,332,16.0,17.0,82,0.00,,,0.00,Wunderground v.1.15,2013-03-25 19:09:00,
2013-03-25 14:14:00,32.3,27.4,30.07,NNW,346,16.0,17.0,82,0.00,,,0.00,Wunderground v.1.15,2013-03-25 19:14:00,
2013-03-25 14:19:00,32.6,27.7,30.07,NNW,340,15.0,20.0,82,0.00,,,0.00,Wunderground v.1.15,2013-03-25 19:19:00,
2013-03-25 14:24:00,32.8,27.9,30.07,NNW,348,16.0,18.0,82,0.00,,,0.00,Wunderground v.1.15,2013-03-25 19:24:00,
2013-03-25 14:29:00,33.0,27.8,30.07,North,349,16.0,19.0,81,0.00,,,0.00,Wunderground v.1.15,2013-03-25 19:29:00,
2013-03-25 14:34:00,33.2,28.0,30.07,North,349,12.0,17.0,81,0.00,,,0.00,Wunderground v.1.15,2013-03-25 19:34:00,
2013-03-25 14:39:00,33.6,27.8,30.07,North,355,15.0,22.0,79,0.00,,,0.00,Wunderground v.1.15,2013-03-25 19:39:00,
2013-03-25 14:44:00,33.6,27.2,30.07,North,355,17.0,23.0,77,0.00,,,0.00,Wunderground v.1.15,2013-03-25 19:44:00,
2013-03-25 14:49:00,33.7,27.9,30.07,North,355,21.0,23.0,79,0.00,,,0.00,Wunderground v.1.15,2013-03-25 19:49:00,
2013-03-25 14:54:00,33.7,27.3,30.07,North,355,22.0,22.0,77,0.00,,,0.00,Wunderground v.1.15,2013-03-25 19:54:00,
2013-03-25 14:59:00,33.9,27.8,30.07,North,355,20.0,22.0,78,0.00,,,0.00,Wunderground v.1.15,2013-03-25 19:59:00,
2013-03-25 15:04:00,34.1,27.6,30.07,NNW,348,20.0,24.0,77,0.00,,,0.00,Wunderground v.1.15,2013-03-25 20:04:00,
2013-03-25 15:09:00,33.9,27.4,30.07,NNW,344,21.0,21.0,77,0.00,,,0.00,Wunderground v.1.15,2013-03-25 20:09:00,
2013-03-25 15:14:00,34.0,28.2,30.07,NNW,344,16.0,19.0,79,0.00,,,0.00,Wunderground v.1.15,2013-03-25 20:14:00,
2013-03-25 15:19:00,34.2,27.7,30.07,North,351,21.0,24.0,77,0.00,,,0.00,Wunderground v.1.15,2013-03-25 20:19:00,
2013-03-25 15:24:00,34.5,27.1,30.07,North,350,15.0,21.0,74,0.00,,,0.00,Wunderground v.1.15,2013-03-25 20:24:00,
2013-03-25 15:29:00,34.7,27.9,30.07,North,355,20.0,22.0,76,0.00,,,0.00,Wunderground v.1.15,2013-03-25 20:29:00,
2013-03-25 15:34:00,34.8,27.7,30.07,North,355,20.0,20.0,75,0.00,,,0.00,Wunderground v.1.15,2013-03-25 20:34:00,
2013-03-25 15:39:00,34.9,27.8,30.07,North,351,17.0,23.0,75,0.00,,,0.00,Wunderground v.1.15,2013-03-25 20:39:00,
2013-03-25 15:44:00,34.9,27.5,30.07,North,350,20.0,21.0,74,0.00,,,0.00,Wunderground v.1.15,2013-03-25 20:44:00,
2013-03-25 15:49:00,34.7,26.6,30.07,NNW,345,21.0,24.0,72,0.00,,,0.00,Wunderground v.1.15,2013-03-25 20:49:00,
2013-03-25 15:54:00,34.7,26.6,30.07,NNW,346,21.0,24.0,72,0.00,,,0.00,Wunderground v.1.15,2013-03-25 20:54:00,
2013-03-25 15:59:00,34.9,27.1,30.08,NNW,346,17.0,24.0,73,0.00,,,0.00,Wunderground v.1.15,2013-03-25 20:59:00,
2013-03-25 16:04:00,34.9,27.5,30.08,North,355,16.0,19.0,74,0.00,,,0.00,Wunderground v.1.15,2013-03-25 21:04:00,
2013-03-25 16:09:00,34.9,27.5,30.08,North,355,18.0,18.0,74,0.00,,,0.00,Wunderground v.1.15,2013-03-25 21:09:00,
2013-03-25 16:14:00,34.8,27.7,30.08,NNW,348,15.0,19.0,75,0.00,,,0.00,Wunderground v.1.15,2013-03-25 21:14:00,
2013-03-25 16:19:00,34.8,28.0,30.08,North,349,13.0,19.0,76,0.00,,,0.00,Wunderground v.1.15,2013-03-25 21:19:00,
2013-03-25 16:24:00,35.1,26.6,30.08,NNW,343,21.0,26.0,71,0.00,,,0.00,Wunderground v.1.15,2013-03-25 21:24:00,
2013-03-25 16:29:00,35.1,26.6,30.08,North,350,17.0,27.0,71,0.00,,,0.00,Wunderground v.1.15,2013-03-25 21:29:00,
2013-03-25 16:34:00,35.1,26.3,30.08,North,355,21.0,27.0,70,0.00,,,0.00,Wunderground v.1.15,2013-03-25 21:34:00,
2013-03-25 16:39:00,35.0,26.5,30.08,North,355,22.0,27.0,71,0.00,,,0.00,Wunderground v.1.15,2013-03-25 21:39:00,
2013-03-25 16:44:00,35.1,26.3,30.09,North,350,19.0,23.0,70,0.00,,,0.00,Wunderground v.1.15,2013-03-25 21:44:00,
2013-03-25 16:50:00,35.1,26.6,30.09,North,350,22.0,25.0,71,0.00,,,0.00,Wunderground v.1.15,2013-03-25 21:50:00,
2013-03-25 16:55:00,35.1,26.6,30.09,NNW,344,17.0,21.0,71,0.00,,,0.00,Wunderground v.1.15,2013-03-25 21:55:00,
2013-03-25 17:00:00,35.0,26.2,30.09,North,355,20.0,20.0,70,0.00,,,0.00,Wunderground v.1.15,2013-03-25 22:00:00,
2013-03-25 17:05:00,35.0,26.2,30.09,North,355,18.0,25.0,70,0.00,,,0.00,Wunderground v.1.15,2013-03-25 22:05:00,
2013-03-25 17:10:00,34.8,26.4,30.09,North,355,18.0,20.0,71,0.00,,,0.00,Wunderground v.1.15,2013-03-25 22:10:00,
2013-03-25 17:15:00,35.0,27.2,30.10,North,355,17.0,20.0,73,0.00,,,0.00,Wunderground v.1.15,2013-03-25 22:15:00,
2013-03-25 17:20:00,34.9,26.8,30.10,North,355,20.0,23.0,72,0.00,,,0.00,Wunderground v.1.15,2013-03-25 22:20:00,
2013-03-25 17:25:00,34.7,26.6,30.10,NNW,348,18.0,21.0,72,0.00,,,0.00,Wunderground v.1.15,2013-03-25 22:25:00,
2013-03-25 17:30:00,34.8,26.4,30.10,North,350,22.0,24.0,71,0.00,,,0.00,Wunderground v.1.15,2013-03-25 22:30:00,
2013-03-25 17:35:00,34.7,26.6,30.10,North,360,16.0,22.0,72,0.00,,,0.00,Wunderground v.1.15,2013-03-25 22:35:00,
2013-03-25 17:40:00,34.4,27.0,30.10,North,5,16.0,23.0,74,0.00,,,0.00,Wunderground v.1.15,2013-03-25 22:40:00,
2013-03-25 17:45:00,34.3,26.9,30.11,North,360,17.0,22.0,74,0.00,,,0.00,Wunderground v.1.15,2013-03-25 22:45:00,
2013-03-25 17:50:00,34.4,26.6,30.11,North,355,17.0,23.0,73,0.00,,,0.00,Wunderground v.1.15,2013-03-25 22:50:00,
2013-03-25 17:55:00,34.4,27.6,30.11,North,360,11.0,19.0,76,0.00,,,0.00,Wunderground v.1.15,2013-03-25 22:55:00,
2013-03-25 18:00:00,34.3,27.2,30.11,North,355,19.0,19.0,75,0.00,,,0.00,Wunderground v.1.15,2013-03-25 23:00:00,
2013-03-25 18:05:00,34.4,27.3,30.12,North,355,16.0,20.0,75,0.00,,,0.00,Wunderground v.1.15,2013-03-25 23:05:00,
2013-03-25 18:10:00,34.4,27.3,30.12,NNW,348,19.0,19.0,75,0.00,,,0.00,Wunderground v.1.15,2013-03-25 23:10:00,
2013-03-25 18:15:00,34.3,27.8,30.12,NNW,345,18.0,19.0,77,0.00,,,0.00,Wunderground v.1.15,2013-03-25 23:15:00,
2013-03-25 18:20:00,34.1,27.0,30.13,North,351,20.0,21.0,75,0.00,,,0.00,Wunderground v.1.15,2013-03-25 23:20:00,
2013-03-25 18:25:00,34.0,26.6,30.13,North,360,17.0,20.0,74,0.00,,,0.00,Wunderground v.1.15,2013-03-25 23:25:00,
2013-03-25 18:30:00,33.5,26.7,30.13,North,355,16.0,20.0,76,0.00,,,0.00,Wunderground v.1.15,2013-03-25 23:30:00,
2013-03-25 18:35:00,33.3,26.5,30.13,North,355,16.0,19.0,76,0.00,,,0.00,Wunderground v.1.15,2013-03-25 23:35:00,
2013-03-25 18:40:00,33.0,26.6,30.14,North,355,16.0,20.0,77,0.00,,,0.00,Wunderground v.1.15,2013-03-25 23:40:00,
2013-03-25 18:45:00,32.9,26.8,30.14,North,355,15.0,18.0,78,0.00,,,0.00,Wunderground v.1.15,2013-03-25 23:45:00,
2013-03-25 18:50:00,32.8,26.7,30.14,North,355,14.0,18.0,78,0.00,,,0.00,Wunderground v.1.15,2013-03-25 23:50:00,
2013-03-25 18:55:00,32.7,26.3,30.15,North,355,13.0,18.0,77,0.00,,,0.00,Wunderground v.1.15,2013-03-25 23:55:00,
2013-03-25 19:00:00,32.7,26.3,30.15,North,355,13.0,16.0,77,0.00,,,0.00,Wunderground v.1.15,2013-03-26 00:00:00,
2013-03-25 19:05:00,32.6,26.5,30.15,North,355,15.0,19.0,78,0.00,,,0.00,Wunderground v.1.15,2013-03-26 00:05:00,
2013-03-25 19:10:00,32.6,26.5,30.16,North,350,18.0,18.0,78,0.00,,,0.00,Wunderground v.1.15,2013-03-26 00:10:00,
2013-03-25 19:15:00,32.5,26.4,30.16,North,355,15.0,17.0,78,0.00,,,0.00,Wunderground v.1.15,2013-03-26 00:15:00,
2013-03-25 19:20:00,32.3,26.2,30.16,North,355,14.0,17.0,78,0.00,,,0.00,Wunderground v.1.15,2013-03-26 00:20:00,
2013-03-25 19:25:00,32.2,26.1,30.16,North,349,14.0,16.0,78,0.00,,,0.00,Wunderground v.1.15,2013-03-26 00:25:00,
2013-03-25 19:30:00,32.0,26.2,30.16,North,350,13.0,16.0,79,0.00,,,0.00,Wunderground v.1.15,2013-03-26 00:30:00,
2013-03-25 19:35:00,31.8,26.0,30.16,North,350,14.0,15.0,79,0.00,,,0.00,Wunderground v.1.15,2013-03-26 00:35:00,
2013-03-25 19:40:00,31.6,26.1,30.17,NNW,348,12.0,15.0,80,0.00,,,0.00,Wunderground v.1.15,2013-03-26 00:40:00,
2013-03-25 19:45:00,31.5,26.0,30.17,NNW,346,12.0,15.0,80,0.00,,,0.00,Wunderground v.1.15,2013-03-26 00:45:00,
2013-03-25 19:50:00,31.4,25.9,30.17,NNW,344,11.0,15.0,80,0.00,,,0.00,Wunderground v.1.15,2013-03-26 00:50:00,
2013-03-25 19:55:00,31.2,26.0,30.17,NNW,344,9.0,12.0,81,0.00,,,0.00,Wunderground v.1.15,2013-03-26 00:55:00,
2013-03-25 20:00:00,31.0,26.1,30.17,NNW,342,9.0,10.0,82,0.00,,,0.00,Wunderground v.1.15,2013-03-26 01:00:00,
2013-03-25 20:05:00,31.0,26.1,30.17,NNW,340,8.0,10.0,82,0.00,,,0.00,Wunderground v.1.15,2013-03-26 01:05:00,
2013-03-25 20:10:00,30.9,26.3,30.17,NNW,340,7.0,10.0,83,0.00,,,0.00,Wunderground v.1.15,2013-03-26 01:10:00,
2013-03-25 20:15:00,30.7,26.1,30.17,NNW,339,9.0,10.0,83,0.00,,,0.00,Wunderground v.1.15,2013-03-26 01:15:00,
2013-03-25 20:20:00,30.6,26.1,30.18,NNW,338,9.0,10.0,83,0.00,,,0.00,Wunderground v.1.15,2013-03-26 01:20:00,
2013-03-25 20:25:00,30.6,26.1,30.18,NNW,338,8.0,10.0,83,0.00,,,0.00,Wunderground v.1.15,2013-03-26 01:25:00,
2013-03-25 20:30:00,30.5,26.2,30.18,NNW,338,8.0,11.0,84,0.00,,,0.00,Wunderground v.1.15,2013-03-26 01:30:00,
2013-03-25 20:35:00,30.3,26.0,30.18,NNW,338,7.0,9.0,84,0.00,,,0.00,Wunderground v.1.15,2013-03-26 01:35:00,
2013-03-25 20:42:00,30.0,26.0,30.18,NNW,338,7.0,7.0,85,0.00,,,0.00,Wunderground v.1.15,2013-03-26 01:42:00,
2013-03-25 20:47:00,30.0,26.0,30.18,NNW,338,7.0,9.0,85,0.00,,,0.00,Wunderground v.1.15,2013-03-26 01:47:00,
2013-03-25 20:52:00,29.9,25.9,30.18,NNW,338,8.0,8.0,85,0.00,,,0.00,Wunderground v.1.15,2013-03-26 01:52:00,
2013-03-25 20:57:00,29.8,25.8,30.18,NNW,338,7.0,9.0,85,0.00,,,0.00,Wunderground v.1.15,2013-03-26 01:57:00,
2013-03-25 21:02:00,29.9,25.7,30.18,NNW,337,8.0,8.0,84,0.00,,,0.00,Wunderground v.1.15,2013-03-26 02:02:00,
2013-03-25 21:08:00,29.8,25.6,30.19,NNW,337,8.0,9.0,84,0.00,,,0.00,Wunderground v.1.15,2013-03-26 02:08:00,
2013-03-25 21:13:00,29.8,25.6,30.19,NNW,336,8.0,9.0,84,0.00,,,0.00,Wunderground v.1.15,2013-03-26 02:13:00,
2013-03-25 21:18:00,29.8,25.6,30.19,NNW,336,8.0,9.0,84,0.00,,,0.00,Wunderground v.1.15,2013-03-26 02:18:00,
2013-03-25 21:23:00,29.8,25.3,30.19,NNW,335,8.0,9.0,83,0.00,,,0.00,Wunderground v.1.15,2013-03-26 02:23:00,
2013-03-25 21:28:00,29.7,25.2,30.19,NNW,334,8.0,9.0,83,0.00,,,0.00,Wunderground v.1.15,2013-03-26 02:28:00,
2013-03-25 21:33:00,29.5,25.3,30.19,NNW,333,7.0,8.0,84,0.00,,,0.00,Wunderground v.1.15,2013-03-26 02:33:00,
2013-03-25 21:38:00,29.3,25.1,30.19,NNW,333,8.0,8.0,84,0.00,,,0.00,Wunderground v.1.15,2013-03-26 02:38:00,
2013-03-25 21:43:00,29.1,24.9,30.19,NNW,333,8.0,9.0,84,0.00,,,0.00,Wunderground v.1.15,2013-03-26 02:43:00,
2013-03-25 21:48:00,29.0,25.1,30.19,NNW,333,7.0,9.0,85,0.00,,,0.00,Wunderground v.1.15,2013-03-26 02:48:00,
2013-03-25 21:53:00,29.0,25.1,30.20,NNW,333,7.0,8.0,85,0.00,,,0.00,Wunderground v.1.15,2013-03-26 02:53:00,
2013-03-25 21:58:00,29.0,25.3,30.20,NNW,330,7.0,9.0,86,0.00,,,0.00,Wunderground v.1.15,2013-03-26 02:58:00,
2013-03-25 22:03:00,29.0,25.3,30.20,NNW,327,10.0,10.0,86,0.00,,,0.00,Wunderground v.1.15,2013-03-26 03:03:00,
2013-03-25 22:08:00,28.9,25.2,30.20,NW,326,7.0,10.0,86,0.00,,,0.00,Wunderground v.1.15,2013-03-26 03:08:00,
2013-03-25 22:13:00,28.7,25.3,30.20,NW,326,7.0,8.0,87,0.00,,,0.00,Wunderground v.1.15,2013-03-26 03:13:00,
2013-03-25 22:18:00,28.6,25.2,30.20,NW,326,6.0,8.0,87,0.00,,,0.00,Wunderground v.1.15,2013-03-26 03:18:00,
2013-03-25 22:23:00,28.4,25.0,30.20,NW,326,6.0,8.0,87,0.00,,,0.00,Wunderground v.1.15,2013-03-26 03:23:00,
2013-03-25 22:28:00,28.2,25.1,30.20,NW,326,7.0,8.0,88,0.00,,,0.00,Wunderground v.1.15,2013-03-26 03:28:00,
2013-03-25 22:33:00,28.1,25.0,30.20,NW,326,7.0,7.0,88,0.00,,,0.00,Wunderground v.1.15,2013-03-26 03:33:00,
2013-03-25 22:38:00,28.0,24.9,30.20,NW,326,6.0,8.0,88,0.00,,,0.00,Wunderground v.1.15,2013-03-26 03:38:00,
2013-03-25 22:43:00,27.9,24.8,30.20,NW,326,6.0,7.0,88,0.00,,,0.00,Wunderground v.1.15,2013-03-26 03:43:00,
2013-03-25 22:48:00,27.8,24.7,30.21,NW,326,6.0,7.0,88,0.00,,,0.00,Wunderground v.1.15,2013-03-26 03:48:00,
2013-03-25 22:53:00,27.7,24.6,30.21,NW,326,6.0,7.0,88,0.00,,,0.00,Wunderground v.1.15,2013-03-26 03:53:00,
2013-03-25 22:58:00,27.8,24.7,30.21,NW,326,7.0,8.0,88,0.00,,,0.00,Wunderground v.1.15,2013-03-26 03:58:00,
2013-03-25 23:00:00,27.8,24.7,30.21,NW,326,6.0,7.0,88,0.00,,,0.00,Wunderground v.1.15,2013-03-26 04:00:00,
2013-03-25 23:05:00,27.7,24.6,30.21,NW,326,5.0,7.0,88,0.00,,,0.00,Wunderground v.1.15,2013-03-26 04:05:00,
2013-03-25 23:10:00,27.5,24.4,30.21,NW,326,7.0,7.0,88,0.00,,,0.00,Wunderground v.1.15,2013-03-26 04:10:00,
2013-03-25 23:15:00,27.4,24.6,30.21,NW,326,6.0,7.0,89,0.00,,,0.00,Wunderground v.1.15,2013-03-26 04:15:00,
2013-03-25 23:20:00,27.3,24.2,30.21,NW,326,4.0,8.0,88,0.00,,,0.00,Wunderground v.1.15,2013-03-26 04:20:00,
2013-03-25 23:25:00,27.2,24.1,30.21,NW,326,5.0,7.0,88,0.00,,,0.00,Wunderground v.1.15,2013-03-26 04:25:00,
2013-03-25 23:30:00,27.0,24.2,30.21,NW,326,6.0,7.0,89,0.00,,,0.00,Wunderground v.1.15,2013-03-26 04:30:00,
2013-03-25 23:35:00,27.0,24.2,30.22,NW,326,5.0,7.0,89,0.00,,,0.00,Wunderground v.1.15,2013-03-26 04:35:00,
2013-03-25 23:40:00,26.9,24.1,30.22,NW,326,5.0,7.0,89,0.00,,,0.00,Wunderground v.1.15,2013-03-26 04:40:00,
2013-03-25 23:45:00,26.8,24.0,30.22,NW,326,6.0,8.0,89,0.00,,,0.00,Wunderground v.1.15,2013-03-26 04:45:00,
2013-03-25 23:50:00,26.8,24.3,30.22,NW,326,7.0,8.0,90,0.00,,,0.00,Wunderground v.1.15,2013-03-26 04:50:00,
2013-03-25 23:55:00,26.8,24.0,30.22,NW,326,4.0,7.0,89,0.00,,,0.00,Wunderground v.1.15,2013-03-26 04:55:00,